P/2003 WR168 ( NEAT-LINEAR )

Japanese version
Home page
Updated on December 8, 2020

---------------------------------------------------------------------

* Profile

Discovery Date November 19, 2003 and February 2, 2005
Magnitude 19.4 mag, 19.4 mag
Discoverer Near-Earth-Asteroid Tracking Team (Jet Propulsion Laboratory), Lincoln Laboratory Near-Earth Asteroid Research project

* Orbital Elements

Epoch 2004 July 14.0 TT = JDT 2453200.5                                         
T 2004 June 25.94676 TT                                 Veres                   
q   3.2406345            (2000.0)            P               Q                  
n   0.05803161     Peri.  312.96230     -0.06191780     -0.99259193             
a   6.6073348      Node   140.22647     +0.95669027     -0.08887253             
e   0.5095398      Incl.    9.40416     +0.28444669     +0.08284284             
P  17.0                                                                         
From 144 observations 2003 Nov. 19-2020 Dec. 1, mean residual 0".5.             

* Magnitudes Graph

        m1 = 12.0 + 5 log d + 10.0 log r

---------------------------------------------------------------------

The orbital elements are published on M.P.E.C. 2020-X10.
The magnitudes graphs are made with Comet for Windows.

---------------------------------------------------------------------

Copyright(C) Seiichi Yoshida (comet@aerith.net). All rights reserved.